Previsão horária em A dos Cunhados

Hoje, 14 Abril, Quarta-feira

Tempo Temperatura Precipitação Vento Pressão Humidade
00:00 +14°C° 0 mm 2 m/s 754 mmHg 91%
01:00 +14°C° 0 mm 2 m/s 753 mmHg 92%
02:00 +14°C° 0 mm 2 m/s 753 mmHg 93%
03:00 +13°C° 0 mm 2 m/s 753 mmHg 92%
04:00 +13°C° 0 mm 2 m/s 753 mmHg 92%
05:00 +13°C° 0 mm 2 m/s 753 mmHg 92%
06:00 +15°C° 0 mm 2 m/s 753 mmHg 85%
07:00 +16°C° 0 mm 2 m/s 753 mmHg 78%
08:00 +18°C° 0 mm 3 m/s 753 mmHg 72%
09:00 +18°C° 0.1 mm 2 m/s 753 mmHg 69%
10:00 +19°C° 0.1 mm 2 m/s 752 mmHg 67%
11:00 +19°C° 0.1 mm 2 m/s 752 mmHg 65%
12:00 +19°C° 0 mm 2 m/s 752 mmHg 64%
13:00 +20°C° 0 mm 2 m/s 751 mmHg 64%
14:00 +20°C° 0 mm 2 m/s 751 mmHg 64%
15:00 +19°C° 0.1 mm 2 m/s 751 mmHg 69%
16:00 +18°C° 0.1 mm 3 m/s 751 mmHg 74%
17:00 +18°C° 0.1 mm 3 m/s 751 mmHg 79%
18:00 +17°C° 0.4 mm 3 m/s 751 mmHg 84%
19:00 +16°C° 0.4 mm 3 m/s 751 mmHg 89%
20:00 +15°C° 0.4 mm 2 m/s 751 mmHg 94%
21:00 +15°C° 2.7 mm 1 m/s 750 mmHg 94%
22:00 +15°C° 2.7 mm 1 m/s 751 mmHg 94%
23:00 +15°C° 2.7 mm 1 m/s 751 mmHg 95%

Amanhã, 15 Abril, Quinta-feira

Tempo Temperatura Precipitação Vento Pressão Humidade
00:00 +15°C° 0.1 mm 1 m/s 751 mmHg 95%
01:00 +15°C° 0.1 mm 1 m/s 750 mmHg 94%
02:00 +15°C° 0.1 mm 1 m/s 750 mmHg 94%
03:00 +15°C° 0.8 mm 1 m/s 751 mmHg 98%
04:00 +15°C° 0.8 mm 1 m/s 751 mmHg 98%
05:00 +15°C° 0.8 mm 1 m/s 751 mmHg 98%
06:00 +15°C° 0.7 mm 1 m/s 751 mmHg 97%
07:00 +15°C° 0.7 mm 1 m/s 751 mmHg 97%
08:00 +16°C° 0.7 mm 1 m/s 751 mmHg 96%
09:00 +17°C° 0 mm 2 m/s 751 mmHg 83%
10:00 +19°C° 0 mm 2 m/s 751 mmHg 72%
11:00 +21°C° 0 mm 3 m/s 751 mmHg 61%
12:00 +22°C° 0.1 mm 3 m/s 751 mmHg 60%
13:00 +22°C° 0.1 mm 3 m/s 751 mmHg 59%
14:00 +22°C° 0.1 mm 3 m/s 751 mmHg 58%
15:00 +21°C° 0.2 mm 3 m/s 751 mmHg 64%
16:00 +20°C° 0.2 mm 3 m/s 752 mmHg 70%
17:00 +19°C° 0.2 mm 3 m/s 752 mmHg 75%
18:00 +18°C° 0 mm 3 m/s 752 mmHg 79%
19:00 +16°C° 0 mm 3 m/s 753 mmHg 84%
20:00 +14°C° 0 mm 3 m/s 753 mmHg 88%
21:00 +15°C° 0 mm 2 m/s 753 mmHg 87%
22:00 +14°C° 0 mm 2 m/s 753 mmHg 86%
23:00 +14°C° 0 mm 2 m/s 753 mmHg 86%

Depois de amanhã, 16 Abril, Sexta-feira

Tempo Temperatura Precipitação Vento Pressão Humidade
00:00 +13°C° 0 mm 2 m/s 753 mmHg 86%
01:00 +13°C° 0 mm 2 m/s 753 mmHg 86%
02:00 +13°C° 0 mm 2 m/s 753 mmHg 87%
03:00 +13°C° 0 mm 2 m/s 753 mmHg 88%
04:00 +13°C° 0 mm 2 m/s 753 mmHg 89%
05:00 +12°C° 0 mm 2 m/s 753 mmHg 90%
06:00 +14°C° 0 mm 2 m/s 753 mmHg 83%
07:00 +16°C° 0 mm 2 m/s 753 mmHg 75%
08:00 +18°C° 0 mm 2 m/s 754 mmHg 67%
09:00 +19°C° 0 mm 3 m/s 754 mmHg 63%
10:00 +20°C° 0 mm 3 m/s 754 mmHg 58%
11:00 +21°C° 0 mm 4 m/s 754 mmHg 54%
12:00 +21°C° 0 mm 4 m/s 753 mmHg 54%
13:00 +21°C° 0 mm 4 m/s 753 mmHg 53%
14:00 +20°C° 0 mm 4 m/s 753 mmHg 53%
15:00 +19°C° 0 mm 4 m/s 753 mmHg 57%
16:00 +17°C° 0 mm 4 m/s 753 mmHg 60%
17:00 +15°C° 0 mm 4 m/s 753 mmHg 63%
18:00 +13°C° 0 mm 4 m/s 753 mmHg 70%
19:00 +11°C° 0 mm 3 m/s 754 mmHg 78%
20:00 +10°C° 0 mm 3 m/s 754 mmHg 86%
21:00 +10°C° 0 mm 3 m/s 754 mmHg 84%
22:00 +10°C° 0 mm 3 m/s 754 mmHg 83%
23:00 +12°C° 0 mm 2 m/s 754 mmHg 81%

17 Abril, Sábado

Tempo Temperatura Precipitação Vento Pressão Humidade
00:00 +10°C° 0 mm 2 m/s 754 mmHg 75%
01:00 +10°C° 0 mm 3 m/s 754 mmHg 68%
02:00 +10°C° 0 mm 3 m/s 754 mmHg 62%
03:00 +10°C° 0 mm 4 m/s 755 mmHg 58%
04:00 +8°C° 0 mm 4 m/s 755 mmHg 55%
05:00 +7°C° 0 mm 5 m/s 755 mmHg 52%
06:00 +9°C° 0 mm 5 m/s 755 mmHg 48%
07:00 +12°C° 0 mm 5 m/s 756 mmHg 44%
08:00 +14°C° 0 mm 5 m/s 756 mmHg 40%
09:00 +15°C° 0 mm 5 m/s 756 mmHg 37%
10:00 +18°C° 0 mm 4 m/s 757 mmHg 34%
11:00 +20°C° 0 mm 3 m/s 757 mmHg 31%
12:00 +20°C° 0 mm 3 m/s 756 mmHg 31%
13:00 +21°C° 0 mm 3 m/s 756 mmHg 32%
14:00 +21°C° 0 mm 4 m/s 756 mmHg 32%
15:00 +20°C° 0 mm 4 m/s 756 mmHg 39%
16:00 +19°C° 0 mm 4 m/s 756 mmHg 45%
17:00 +17°C° 0 mm 4 m/s 757 mmHg 52%
18:00 +14°C° 0 mm 4 m/s 757 mmHg 58%
19:00 +12°C° 0 mm 4 m/s 757 mmHg 64%
20:00 +10°C° 0 mm 4 m/s 758 mmHg 70%
21:00 +10°C° 0 mm 3 m/s 758 mmHg 71%
22:00 +10°C° 0 mm 3 m/s 758 mmHg 72%
23:00 +10°C° 0 mm 3 m/s 758 mmHg 73%

18 Abril, Domingo

Tempo Temperatura Precipitação Vento Pressão Humidade
00:00 +10°C° 0 mm 3 m/s 757 mmHg 72%
01:00 +9°C° 0 mm 2 m/s 757 mmHg 70%
02:00 +9°C° 0 mm 2 m/s 757 mmHg 68%
03:00 +9°C° 0 mm 2 m/s 757 mmHg 67%
04:00 +9°C° 0 mm 2 m/s 757 mmHg 66%
05:00 +9°C° 0 mm 2 m/s 757 mmHg 65%
06:00 +12°C° 0 mm 2 m/s 757 mmHg 59%
07:00 +15°C° 0 mm 2 m/s 758 mmHg 53%
08:00 +17°C° 0 mm 2 m/s 758 mmHg 47%
09:00 +19°C° 0 mm 2 m/s 758 mmHg 45%
10:00 +20°C° 0 mm 2 m/s 758 mmHg 42%
11:00 +21°C° 0 mm 2 m/s 758 mmHg 39%
12:00 +21°C° 0 mm 3 m/s 757 mmHg 40%
13:00 +21°C° 0 mm 3 m/s 757 mmHg 40%
14:00 +21°C° 0 mm 4 m/s 757 mmHg 41%
15:00 +20°C° 0 mm 4 m/s 757 mmHg 46%
16:00 +19°C° 0 mm 4 m/s 757 mmHg 52%
17:00 +17°C° 0 mm 4 m/s 757 mmHg 57%
18:00 +15°C° 0 mm 4 m/s 757 mmHg 68%
19:00 +13°C° 0 mm 3 m/s 758 mmHg 78%
20:00 +11°C° 0 mm 3 m/s 758 mmHg 89%
21:00 +11°C° 0 mm 3 m/s 758 mmHg 90%
22:00 +11°C° 0 mm 3 m/s 757 mmHg 90%
23:00 +11°C° 0 mm 3 m/s 757 mmHg 91%

19 Abril, Segunda-feira

Tempo Temperatura Precipitação Vento Pressão Humidade
00:00 +11°C° 0 mm 3 m/s 757 mmHg 91%
01:00 +10°C° 0 mm 3 m/s 757 mmHg 91%
02:00 +10°C° 0 mm 2 m/s 756 mmHg 91%
03:00 +10°C° 0 mm 3 m/s 756 mmHg 91%
04:00 +10°C° 0 mm 3 m/s 756 mmHg 91%
05:00 +11°C° 0 mm 3 m/s 756 mmHg 90%
06:00 +12°C° 0 mm 3 m/s 756 mmHg 80%
07:00 +14°C° 0 mm 4 m/s 757 mmHg 70%
08:00 +17°C° 0 mm 4 m/s 757 mmHg 60%
09:00 +18°C° 0 mm 4 m/s 757 mmHg 56%
10:00 +20°C° 0 mm 5 m/s 756 mmHg 52%
11:00 +21°C° 0 mm 5 m/s 756 mmHg 49%
12:00 +20°C° 0 mm 5 m/s 756 mmHg 50%
13:00 +20°C° 0 mm 6 m/s 756 mmHg 51%
14:00 +20°C° 0 mm 6 m/s 755 mmHg 52%
15:00 +19°C° 0 mm 6 m/s 755 mmHg 57%
16:00 +16°C° 0 mm 5 m/s 755 mmHg 62%
17:00 +15°C° 0 mm 5 m/s 755 mmHg 67%
18:00 +14°C° 0 mm 5 m/s 755 mmHg 75%
19:00 +13°C° 0 mm 4 m/s 755 mmHg 83%
20:00 +11°C° 0 mm 4 m/s 755 mmHg 90%
21:00 +11°C° 0 mm 3 m/s 755 mmHg 91%
22:00 +11°C° 0 mm 3 m/s 755 mmHg 92%
23:00 +11°C° 0 mm 3 m/s 755 mmHg 93%
Mostrar mais

Necessitamos do seu Consentimento

A Meteoprog e os seus Fornecedores de Serviços podem armazenar e aceder a dados pessoais como cookies, identificadores do dispositivo ou outras tecnologias semelhantes existentes no seu dispositivo e processar estes dados para personalizar conteúdos e anúncios, assim como funcionalidades nas redes sociais e análise de tráfego.

  • Armazenar e/ou aceder a informações no seu dispositivo

    Os cookies, identificadores do dispositivo ou outras informações podem ser armazenados ou acedidos no seu dispositivo, para os fins acima indicados.

  • Anúncios e conteúdos personalizados, medição de anúncios e conteúdos, dados sobre o público-alvo e desenvolvimento de produtos

    Os anúncios e os conteúdos podem ser personalizados com base num perfil. Podem ser adicionados dados adicionais para uma maior personalização dos anúncios e dos conteúdos. A eficácia dos anúncios e dos conteúdos pode ser medida. Podem ser obtidas informações sobre o público que visualizou os anúncios e os conteúdos. Estes dados podem ser usados para desenvolver ou melhorar sistemas, softwares ou a experiência do utilizador.

Ao clicar em "Eu concordo”, permitirá o uso de cookies, identificadores do dispositivo e web beacons mencionados ou outras tecnologias semelhantes. As configurações do navegador do seu dispositivo podem ser alteradas.

Para certos fins, podem ser invocados interesses legítimos ao invés de consentimento. Pode ler mais informação sobre este assunto na nossa Política de Privacidade e Cookies.